Showing default

TIROS 5, 309

Orbit data source: Space-Track

TIROS 5, 309 is a payload satellite owned by GSFC (US) in LEO that was launched on Tue, 19 Jun 1962 UTC via a THOR DELTA launch vehicle from the Air Force Eastern Test Range (AFETR). Payload-class satellites include a variety of spacecraft equipped with specific instruments for various scientific and technological missions. These include communications satellites like Starlink; space stations such as the ISS; scientific satellites like the Hubble; Earth observation satellites from companies like Planet Labs, Umbra, and HawkEye 360; GPS; miniature CubeSats for education and research; and military/defense satellites.

Loading next visibility...
Identifier
309, 1962-025A
Orbit
LEO
Last TLE update
14 hours ago
Origin
Manufacturer
RCA/East Windsor
Mission
Non-operational Civil Weather
Bus & Motor
TIROS, Unknown motor
Mass
129 kg wet, 129 kg dry
Launch date (UTC)
1962-06-19 (63 years ago)
Launch vehicle
THOR DELTA
Launch site
Air Force Eastern Test Range (AFETR)
Object type
Payload
Rocket body
Debris
Shape & HBR
Cyl, 1.07 m
Radar Cross Section
0.920 m², Medium (>0.1 m² and < 1m²)

Expand to show TLE details & history

TLE from 14 hours ago
0 TIROS 5
1 00309U 62025A   25128.68793171  .00000772  00000-0  15894-3 0  9993
2 00309  58.0895 265.9629 0190240  69.1786 292.9504 14.59986409322745
Epoch: 2025-05-08T16:30Z
Definitive object data (Epoch: 2025-05-08T16:30:37.299Z)
Latitude
-0.00001°
Longitude
151.55264°
Altitude
644.324 km
Speed
7.563 km/s
True Right ascension
17h 43m 51s
True Declination
0° 00' 00"
Sunlit
Object was in full shadow at TLE epoch
Visualization TLE readout
Latitude
-50.0359°
Longitude
101.6784°
Altitude
803.515 km
Speed
7.402 km/s
Apparent Right ascension
07h 40m 39s
Apparent Declination
-84° 11' 40"
Sunlit
Object is in full shadow
Visualization observer readout
Local Sidereal Time
15:09:15
Azimuth
187.229° SSW
Elevation
-41.884°
Doppler factor
1
Orbital elements
Apogee altitude
827.234 km
Perigee altitude
558.202 km
Semi-major axis
7,070.855 km
Eccentricity
0.019024
Inclination
58.0895°
RAAN
265.9629°
Arg. of periapsis
69.1786°
True anomaly
290.92461°
Mean anomaly
292.9504°
Eccentric anomaly
291.93934°
Mean motion
3.65036 °/min
BSTAR
0.00015894
Orbital period
98.62 mins
Loading maneuver chart data...
Loading SW <> Apogee altitude chart data...
Loading historical data...
Loading historical data...
Loading historical data...
Loading historical data...
Loading historical data...
Loading historical data...
Loading historical data...

TIROS 5 Visibility forecast

Observer location: undefined°, undefined°

Span
Click to sort rows by Start time (UTC) header in descending order
Start Az.
Max El. time (UTC)
Max El. Az.
Max El.
End time (UTC)
End Az.
7 mins2025-05-09 10:43:19.671Z190.745° SSW2025-05-09 10:47:19.671Z115.457° SE30.199°2025-05-09 10:50:19.671Z61.605° ENE
5 mins2025-05-09 12:27:19.671Z280.019° WNW2025-05-09 12:29:19.671Z324.167° NNW24.834°2025-05-09 12:32:19.671Z18.164° NNE
4 mins2025-05-09 17:39:19.671Z4.776° NNE2025-05-09 17:41:19.671Z40.765° NE18.386°2025-05-09 17:43:19.671Z71.643° E
7 mins2025-05-09 19:20:19.671Z311.623° NW2025-05-09 19:23:19.671Z248.385° W43.27°2025-05-09 19:27:19.671Z148.38° SSE
|